CAPE
1612 1558 1572 1458 1341 1548 1468 1396 1280 1185 975 1079 1029 943 597 321 196 85 9 5 0 6 22 4 0 0 0 0 0 0 14 3 0 2 3 0 1 0 0 0 0 0 0
1697 1785 1703 1785 1742 1418 1370 1380 1408 1331 1160 1148 1037 1022 785 513 303 199 77 5 0 0 1 7 0 1 6 12 1 8 45 27 1 6 18 22 23 15 17 9 2 6 0
1852 1965 2064 2007 2013 1740 1472 1556 1438 1326 1049 1026 735 889 906 706 521 290 139 9 0 0 0 0 0 2 4 3 17 6 67 97 70 50 60 41 29 20 2 1 0 0 0
2215 2153 2129 2183 2154 2102 1814 1567 1547 1499 1249 1232 1041 869 971 809 595 450 258 137 36 22 0 0 0 1 12 4 13 77 121 120 113 104 48 33 27 8 2 0 0 0 0
2242 2390 2266 2287 2415 2410 2202 1846 1745 1845 1448 1441 1176 1120 886 874 728 533 401 229 95 81 59 23 49 51 132 76 29 86 103 95 117 93 8 13 3 0 0 0 0 0 0
2375 2375 2473 2532 2584 2566 2597 2446 1988 1962 2078 1730 1380 1074 977 887 743 570 502 397 190 129 38 0 57 148 162 105 56 89 92 122 60 24 22 4 0 0 0 0 0 0 0
2389 2615 2725 2619 2612 2643 2702 2715 2609 2229 2091 2071 1832 1584 1352 1118 838 533 487 496 344 246 96 0 14 120 135 106 50 27 65 90 102 29 17 0 0 0 0 0 0 0 0
2412 2594 2862 2797 2637 2683 2737 2748 2733 2729 2395 2313 2036 1909 1755 1128 841 677 591 434 345 235 92 4 66 203 218 64 39 35 60 36 46 43 33 15 5 17 25 22 4 0 0
2249 2413 2641 2768 2623 2705 2670 2782 2710 2787 2644 2660 2383 2048 1674 116 682 560 299 271 274 194 67 119 224 297 150 27 57 52 2 8 58 45 45 54 55 76 13 0 1 0 0
1907 2173 2495 2666 2593 2583 2714 2757 2785 2810 2808 2574 2427 1920 320 295 471 374 226 80 128 105 137 237 244 179 108 21 28 2 8 32 32 0 0 0 0 0 0 0 0 0 0
1731 1982 2223 2587 2605 2594 2770 2824 2898 2765 2740 2535 2082 1620 699 1125 766 448 17 3 3 3 14 24 5 8 3 5 39 35 57 18 3 0 0 0 0 0 0 0 0 0 0
1528 1727 1758 2309 2522 2750 2850 2792 2695 2531 2476 2032 1709 1404 1004 885 582 144 10 2 0 0 6 0 0 5 0 0 0 0 0 0 0 0 0 0 0 0 0 0 0 0 0
1229 1498 1773 2240 2593 2697 2639 2621 2281 2179 1886 1816 1649 1245 876 562 216 29 0 0 1 54 0 0 0 0 0 0 0 0 0 0 0 0 0 0 0 0 0 0 0 0 0
1792 2343 2486 2381 2358 2396 2150 2046 1707 1741 1599 1275 1190 966 675 361 139 25 0 0 0 0 0 0 0 0 0 0 0 0 0 0 0 0 0 0 0 0 0 0 0 0 0
2337 2390 2231 1785 1999 1409 675 753 974 651 1028 1060 761 685 605 495 361 220 77 7 2 0 0 0 0 0 0 0 0 0 0 0 0 0 0 0 0 0 0 0 0 0 0
2137 2168 2058 1187 672 474 281 40 0 15 300 558 572 483 149 395 302 115 5 0 0 0 0 0 0 0 0 0 0 0 0 0 0 0 0 0 0 0 0 0 0 0 0
2335 1975 1278 941 635 143 149 72 365 0 0 55 332 228 194 151 129 62 0 0 0 0 0 0 0 0 0 0 0 0 0 0 0 0 0 0 0 0 0 0 0 0 0
1489 705 593 443 294 217 223 234 101 160 169 6 0 0 0 21 30 14 0 0 0 0 0 0 0 0 0 0 0 0 0 0 0 0 0 0 0 0 0 0 0 0 0
1325 1032 737 533 439 366 196 73 20 9 0 0 0 0 0 0 0 0 0 0 0 0 0 0 0 0 0 0 0 0 0 0 0 0 0 0 0 0 0 0 0 0 0
1378 1091 1124 949 709 528 218 89 12 0 0 0 0 0 0 0 0 0 0 0 0 0 0 0 0 0 0 0 0 0 0 0 0 0 0 0 0 0 0 0 0 0 0
1129 1355 1242 1141 1091 852 683 277 26 0 0 0 1 0 0 0 0 0 0 0 0 0 0 0 0 0 0 0 0 0 0 0 0 0 0 0 0 0 0 0 0 0 0
113 168 72 430 520 538 350 129 146 30 9 3 0 0 0 0 0 0 0 0 0 0 0 0 0 0 0 0 0 0 0 0 0 0 0 0 0 0 0 0 0 0 0
0 1 9 2 0 49 59 24 128 81 44 0 0 0 0 0 0 0 0 0 0 0 0 0 0 0 0 0 0 0 0 0 0 0 0 0 0 0 0 0 0 0 0
21 4 7 0 0 0 0 1 7 72 75 26 1 0 0 0 0 0 0 0 0 0 0 0 0 0 0 0 0 0 0 0 0 0 0 0 0 0 0 0 0 0 0
23 5 13 17 4 0 1 4 6 20 44 23 2 0 0 0 0 0 0 0 0 0 0 0 0 0 0 0 0 0 0 0 0 0 0 0 0 0 0 0 0 0 0
51 55 28 9 3 0 0 0 1 0 8 8 5 0 0 0 0 0 0 0 0 0 0 0 0 0 0 0 0 0 0 0 0 0 0 0 0 0 0 0 0 0 0
CIN
-304 -276 -257 -237 -203 -132 -121 -140 -140 -140 -172 -156 -164 -175 -211 -258 -307 -361 -376 -384 -0 -252 -276 -140 -0 -0 -0 -0 -0 -0 -81 -56 -0 -45 -89 -0 -47 -0 -0 -0 -0 -0 -61
-326 -273 -257 -226 -208 -200 -195 -176 -155 -153 -170 -164 -184 -182 -199 -229 -270 -302 -323 -330 -0 -0 -14 -248 -12 -132 -132 -130 -90 -54 -41 -72 -41 -48 -59 -49 -61 -64 -73 -56 -43 -51 -0
-327 -298 -239 -228 -218 -230 -241 -201 -212 -182 -202 -191 -227 -197 -195 -216 -231 -270 -306 -306 -0 -0 -0 -0 -0 -107 -147 -139 -96 -76 -70 -48 -58 -57 -47 -81 -76 -86 -58 -14 -20 -0 -0
-336 -297 -272 -251 -259 -247 -249 -245 -235 -210 -210 -181 -191 -198 -191 -198 -225 -249 -300 -306 -312 -187 -0 -0 -0 -41 -105 -31 -84 -46 -38 -48 -53 -50 -63 -76 -104 -82 -45 -0 -0 -0 -0
-370 -348 -320 -284 -251 -225 -230 -256 -244 -197 -216 -183 -180 -180 -220 -215 -233 -251 -267 -281 -270 -254 -219 -194 -125 -133 -70 -85 -53 -42 -35 -46 -49 -49 -63 -100 -44 -0 -12 -0 -0 -0 -0
-359 -373 -354 -292 -254 -240 -213 -220 -246 -228 -179 -173 -164 -177 -193 -195 -230 -250 -245 -249 -250 -243 -215 -0 -110 -71 -46 -59 -39 -24 -27 -26 -44 -60 -43 -27 -0 -0 -0 -0 -0 -0 -0
-358 -338 -323 -313 -285 -265 -227 -193 -194 -208 -185 -126 -122 -137 -137 -172 -223 -270 -256 -221 -203 -177 -158 -0 -55 -66 -39 -27 -23 -30 -32 -37 -41 -50 -45 -42 -0 -0 -0 -0 -0 -0 -0
-387 -348 -326 -327 -324 -275 -231 -218 -186 -137 -149 -118 -120 -88 -84 -108 -196 -246 -217 -228 -175 -140 -154 -127 -86 -44 -36 -32 -21 -26 -33 -43 -52 -52 -59 -60 -81 -67 -71 -58 -19 -0 -0
-390 -364 -362 -338 -336 -291 -273 -232 -199 -135 -108 -101 -119 -132 -120 -293 -206 -277 -296 -213 -155 -139 -159 -110 -60 -27 -31 -30 -19 -23 -6 -65 -71 -87 -88 -82 -67 -63 -61 -0 -14 -0 -0
-397 -410 -409 -375 -327 -322 -289 -239 -201 -161 -126 -111 -121 -156 -385 -384 -275 -239 -218 -293 -206 -155 -122 -50 -34 -28 -31 -38 -39 -50 -45 -56 -69 -0 -0 -0 -0 -0 -0 -0 -0 -0 -0
-360 -403 -455 -397 -346 -317 -271 -208 -174 -155 -99 -95 -139 -196 -336 -188 -180 -177 -365 -151 -332 -28 -91 -52 -42 -32 -23 -23 -37 -44 -50 -100 -44 -0 -0 -0 -0 -0 -0 -0 -0 -0 -0
-373 -412 -470 -438 -366 -280 -242 -196 -142 -125 -113 -180 -229 -164 -180 -149 -214 -345 -426 -123 -0 -0 -80 -0 -0 -33 -0 -0 -0 -6 -0 -0 -0 -0 -0 -0 -0 -0 -0 -0 -0 -0 -0
-394 -427 -440 -391 -329 -295 -253 -163 -153 -156 -180 -172 -164 -197 -193 -240 -308 -396 -0 -0 -300 -147 -10 -0 -0 -0 -0 -0 -0 -0 -0 -0 -0 -0 -0 -0 -0 -0 -0 -0 -0 -0 -0
-392 -398 -368 -361 -343 -278 -262 -202 -222 -189 -204 -219 -211 -189 -227 -271 -280 -325 -0 -0 -0 -0 -0 -0 -0 -0 -0 -0 -0 -0 -0 -0 -0 -0 -0 -0 -0 -0 -0 -0 -0 -0 -0
-442 -354 -301 -330 -246 -366 -556 -372 -242 -314 -263 -253 -252 -242 -228 -192 -181 -174 -197 -217 -81 -0 -0 -0 -0 -0 -0 -0 -0 -0 -0 -0 -0 -0 -0 -0 -0 -0 -0 -0 -0 -0 -0
-344 -321 -257 -420 -480 -506 -494 -443 -0 -241 -335 -250 -270 -265 -338 -168 -148 -181 -101 -0 -0 -0 -0 -0 -0 -0 -0 -0 -0 -0 -0 -0 -0 -0 -0 -0 -0 -0 -0 -0 -0 -0 -0
-224 -255 -366 -440 -343 -295 -495 -326 -182 -0 -12 -438 -261 -326 -171 -166 -166 -187 -1 -0 -0 -0 -0 -0 -0 -0 -0 -0 -0 -0 -0 -0 -0 -0 -0 -0 -0 -0 -0 -0 -0 -0 -0
-241 -343 -381 -430 -546 -435 -338 -400 -334 -370 -322 -430 -0 -0 -0 -155 -237 -202 -0 -0 -0 -0 -0 -0 -0 -0 -0 -0 -0 -0 -0 -0 -0 -0 -0 -0 -0 -0 -0 -0 -0 -0 -0
-167 -199 -216 -276 -282 -247 -279 -339 -367 -379 -0 -0 -0 -0 -0 -0 -0 -0 -0 -0 -0 -0 -0 -0 -0 -0 -0 -0 -0 -0 -0 -0 -0 -0 -0 -0 -0 -0 -0 -0 -0 -0 -0
-78 -77 -76 -105 -140 -150 -211 -234 -245 -0 -0 -0 -0 -0 -0 -0 -0 -0 -0 -0 -0 -0 -0 -0 -0 -0 -0 -0 -0 -0 -0 -0 -0 -0 -0 -0 -0 -0 -0 -0 -0 -0 -0
-34 -15 -23 -45 -44 -88 -122 -150 -177 -0 -0 -0 -164 -0 -0 -0 -0 -0 -0 -0 -0 -0 -0 -0 -0 -0 -0 -0 -0 -0 -0 -0 -0 -0 -0 -0 -0 -0 -0 -0 -0 -0 -0
-201 -182 -166 -67 -45 -68 -77 -131 -114 -111 -134 -159 -60 -0 -0 -0 -0 -0 -0 -0 -0 -0 -0 -0 -0 -0 -0 -0 -0 -0 -0 -0 -0 -0 -0 -0 -0 -0 -0 -0 -0 -0 -0
-0 -85 -77 -90 -5 -58 -65 -85 -61 -100 -155 -0 -0 -0 -0 -0 -0 -0 -0 -0 -0 -0 -0 -0 -24 -0 -0 -0 -0 -0 -0 -0 -0 -0 -0 -0 -0 -0 -0 -0 -0 -0 -0
-91 -99 -87 -13 -0 -6 -0 -109 -93 -95 -118 -134 -104 -0 -0 -0 -0 -0 -0 -0 -0 -0 -0 -0 -0 -0 -0 -0 -0 -0 -0 -0 -0 -0 -0 -0 -0 -0 -0 -0 -0 -0 -0
-88 -94 -77 -100 -108 -0 -69 -67 -57 -74 -85 -95 -119 -0 -0 -0 -0 -0 -0 -0 -0 -0 -0 -0 -0 -0 -0 -0 -0 -0 -0 -0 -0 -0 -0 -0 -0 -0 -0 -0 -0 -0 -0
-85 -86 -95 -64 -87 -0 -0 -0 -44 -0 -64 -75 -78 -0 -0 -0 -0 -0 -5 -0 -0 -0 -0 -0 -0 -0 -0 -0 -0 -0 -0 -0 -0 -0 -0 -0 -0 -0 -0 -0 -0 -0 -0
Wind_Speed
23 22 19 18 18 18 19 17 22 25 26 24 20 17 15 12 10 8 6 6 5 4 3 4 5 7 8 8 9 11 8 7 7 11 11 13 14 12 16 22 22 25 27
22 22 21 18 19 23 27 32 31 28 28 26 22 19 17 13 10 7 5 6 4 3 2 1 3 6 9 5 6 7 9 8 11 11 12 13 13 19 17 17 15 25 25
22 22 21 20 20 29 33 33 31 32 30 24 20 18 14 12 10 8 6 5 5 4 4 3 2 5 7 8 5 7 8 9 10 13 13 14 15 23 25 26 24 25 27
22 24 24 23 23 29 32 31 31 29 28 24 18 14 13 12 11 9 8 7 7 6 5 4 4 5 7 8 7 7 9 10 12 15 16 16 16 23 27 30 27 23 25
24 24 26 24 19 20 24 27 27 27 24 19 16 14 12 11 11 10 9 8 8 6 5 6 6 7 7 6 9 8 8 10 13 15 17 20 21 26 30 28 25 26 27
24 25 23 20 18 22 22 21 21 17 17 14 13 13 13 12 13 12 10 9 9 7 8 8 7 8 7 7 5 6 7 9 11 16 20 20 25 29 28 29 29 31 33
24 22 23 21 19 21 20 18 17 16 14 12 12 12 12 13 14 12 10 8 7 7 8 8 7 7 7 6 7 8 12 12 15 18 23 23 27 29 29 31 31 32 32
23 22 22 22 22 19 19 20 17 16 14 12 12 11 13 17 11 9 8 5 6 7 8 7 7 7 6 5 8 9 13 15 19 21 22 26 25 25 25 28 31 32 29
21 21 23 23 20 19 20 20 19 17 15 13 12 10 5 9 10 6 4 4 6 6 6 5 6 7 7 7 10 12 15 18 19 21 23 23 24 26 27 28 30 30 33
24 23 23 22 22 20 20 19 19 17 14 12 12 10 9 6 5 4 4 4 4 5 5 6 8 9 9 8 12 14 17 20 23 25 26 26 26 27 27 24 26 28 30
25 23 20 21 24 23 18 17 17 17 15 12 14 12 6 3 3 4 3 3 4 5 5 6 8 10 11 11 11 14 18 22 23 25 26 28 28 28 25 22 20 20 23
26 23 25 23 23 25 21 18 17 17 16 14 12 6 5 5 3 4 5 2 3 5 7 8 10 12 12 9 10 13 13 16 17 21 25 27 24 21 22 22 23 22 22
26 23 22 22 22 24 23 20 18 18 15 14 8 7 5 3 3 3 4 2 4 6 7 7 9 11 12 11 11 11 12 16 19 21 21 21 20 20 20 22 22 23 24
23 22 21 20 19 21 23 22 20 19 15 13 9 6 4 3 4 3 4 6 7 7 6 8 10 12 11 12 12 11 12 13 14 16 17 17 18 18 21 22 25 26 27
22 20 19 18 16 19 20 22 21 20 13 9 6 4 3 3 3 3 4 6 6 4 6 10 11 10 9 10 11 12 11 11 12 14 14 16 16 17 19 21 21 23 25
19 20 19 18 16 16 15 18 13 10 4 5 3 2 3 3 2 3 4 4 4 4 8 9 8 7 8 9 10 10 10 9 11 13 15 15 16 16 17 19 19 21 23
20 19 19 17 12 15 9 10 6 8 5 2 2 1 2 2 2 4 5 4 4 5 8 7 6 7 8 9 8 8 10 11 12 13 15 16 16 16 17 18 18 20 23
12 14 14 17 10 9 7 11 12 8 5 4 5 4 5 4 4 1 3 4 4 5 7 6 6 7 7 7 8 10 12 13 13 14 15 16 16 16 16 17 18 19 22
4 6 6 5 7 9 7 4 4 4 5 6 7 9 6 7 4 3 3 3 3 4 5 7 6 6 5 7 7 8 10 11 12 13 13 13 15 16 16 16 17 19 21
1 2 4 5 6 7 6 6 5 6 9 13 11 8 2 3 2 2 4 4 4 6 7 7 4 5 5 6 7 9 12 12 12 13 13 13 12 14 15 17 17 19 20
1 4 4 5 7 7 9 8 10 14 16 8 10 4 3 0 1 1 2 3 5 6 7 7 5 4 4 5 7 9 9 10 11 12 12 10 11 13 16 17 18 17 20
7 7 9 10 12 13 17 18 17 13 8 5 6 4 2 3 2 3 2 3 4 4 4 3 3 2 3 4 6 7 9 10 11 12 11 10 11 14 15 17 19 17 18
17 21 19 19 13 16 13 11 8 7 7 6 6 4 3 2 3 2 2 3 4 4 3 3 2 4 5 4 6 8 9 10 10 9 9 10 12 14 14 15 17 16 17
6 6 6 7 7 7 5 4 7 4 4 3 3 4 3 2 2 3 4 4 5 5 3 4 4 6 5 6 7 9 10 10 8 8 9 10 11 12 12 13 14 15 15
8 8 7 9 6 7 7 12 10 8 9 5 3 3 3 2 4 4 4 4 4 5 6 6 7 7 4 5 6 8 9 8 8 8 9 9 9 9 10 11 13 14 17
10 9 10 8 7 6 7 7 7 8 5 5 6 5 5 4 4 5 4 4 4 5 5 6 6 5 4 5 6 7 8 7 8 9 10 9 8 7 8 10 12 13 16
Wind_Direction
186 185 184 187 188 184 185 184 179 177 175 173 170 169 168 166 161 155 148 141 125 122 79 58 40 36 27 24 25 21 14 8 355 356 357 355 358 356 342 331 331 320 318
189 187 186 183 184 184 186 188 185 183 182 181 177 178 178 178 176 178 173 174 168 170 148 63 19 18 10 25 10 357 3 7 359 353 346 345 348 345 346 340 334 324 325
190 188 186 185 185 185 187 188 187 189 187 182 182 185 185 189 191 194 201 205 209 216 211 222 329 354 346 351 351 342 341 344 346 343 338 343 343 333 334 333 333 328 320
191 190 189 188 188 186 187 188 189 189 189 190 193 197 201 200 205 215 220 221 221 226 235 262 293 312 329 336 331 321 329 332 332 331 330 331 337 336 330 328 326 329 325
191 191 192 191 194 196 191 190 191 192 194 198 204 206 208 211 218 227 232 232 237 243 270 275 295 297 303 304 325 315 315 318 322 323 324 328 330 330 329 329 327 326 325
196 197 194 197 199 196 197 197 197 203 202 211 216 220 218 226 226 229 232 243 247 255 262 278 290 300 289 274 305 289 300 306 313 316 319 323 326 328 328 325 322 321 320
201 200 196 199 206 204 205 218 214 222 243 230 236 233 235 237 233 230 232 252 260 264 267 267 276 295 288 288 305 307 310 310 313 316 316 320 324 325 324 320 319 318 318
202 202 201 197 203 215 215 219 229 236 238 240 243 251 274 277 250 229 233 270 272 258 265 261 271 291 302 295 310 309 313 320 320 317 316 319 322 324 324 322 321 319 321
212 212 207 207 210 214 219 223 236 243 245 244 251 249 255 226 241 246 252 274 269 260 259 268 271 284 297 304 317 319 321 320 324 321 320 322 322 323 324 324 321 320 319
219 219 215 216 223 225 222 229 237 239 244 248 253 249 256 266 218 216 257 283 280 292 301 310 316 313 310 313 318 315 317 322 324 324 325 327 327 326 325 323 322 320 321
222 220 231 224 227 231 233 233 234 242 252 254 267 276 276 266 226 231 242 289 319 327 325 320 324 325 322 319 318 322 322 326 327 329 330 329 329 329 332 337 337 333 329
236 236 243 236 233 235 229 230 236 241 246 255 272 268 278 286 244 221 216 262 331 332 336 338 340 341 344 335 327 330 331 333 336 335 334 336 339 343 341 341 338 336 332
242 237 235 236 233 228 228 229 239 241 245 256 258 264 276 277 279 256 220 293 333 345 351 352 351 349 349 349 345 344 344 339 338 339 343 349 350 350 349 345 342 339 336
229 234 233 230 225 227 233 235 236 236 241 251 245 258 279 285 296 319 327 331 338 351 359 355 349 348 350 350 350 348 345 346 348 350 351 355 354 355 350 349 345 342 338
222 229 232 234 230 231 240 248 244 252 239 204 225 241 246 279 288 319 332 334 338 355 359 347 345 350 356 357 353 350 352 354 353 355 355 354 357 357 357 357 355 351 346
222 221 230 234 235 237 242 257 264 267 195 190 184 217 292 318 314 319 339 358 36 32 355 349 356 3 357 354 352 352 357 354 352 353 355 359 0 2 2 3 1 357 353
223 224 227 233 231 235 223 265 199 242 249 245 157 334 275 324 347 336 336 17 42 30 358 5 5 1 355 355 1 10 4 3 2 4 2 0 1 1 1 4 4 359 353
251 252 238 239 226 211 190 157 171 193 216 261 328 313 302 301 316 56 79 42 11 359 359 359 356 357 2 18 14 13 12 11 12 10 6 3 3 7 9 9 6 3 357
230 227 207 184 174 173 173 171 214 246 268 298 307 299 310 327 43 85 50 3 352 347 349 352 359 6 26 22 21 22 19 15 13 9 10 13 12 11 11 12 11 5 1
281 233 200 182 192 208 216 227 247 276 305 292 287 282 353 59 351 344 6 355 347 346 351 351 5 23 31 27 22 14 7 9 11 11 12 13 18 19 16 14 12 9 6
355 280 266 250 246 252 254 255 275 288 283 296 274 263 167 181 359 30 356 1 359 358 355 7 29 49 46 20 6 3 8 10 11 10 10 23 25 19 15 15 14 14 11
310 297 301 286 289 283 277 280 281 266 262 249 262 258 223 325 347 330 338 350 353 356 14 48 36 42 21 7 3 2 4 6 5 3 13 23 22 18 17 15 14 18 18
289 284 293 280 292 278 285 291 281 249 263 260 256 242 241 275 308 320 336 335 341 345 4 36 29 15 4 16 5 1 1 2 5 15 16 16 13 13 18 19 18 20 22
327 339 323 338 334 343 329 299 263 270 252 234 218 232 210 246 286 315 326 331 333 343 351 346 345 343 347 350 359 0 359 5 19 21 18 13 11 12 17 20 23 22 24
316 322 324 320 318 318 303 282 276 273 282 281 261 237 230 235 306 314 325 345 354 354 347 339 336 341 357 356 0 4 11 19 19 17 10 9 10 16 26 25 25 26 22
319 321 321 325 329 320 289 282 285 302 295 290 290 280 260 252 289 306 320 325 338 352 359 344 339 336 348 353 2 17 21 20 14 9 4 9 17 28 35 24 23 27 25